Location: Treviso
(45.6669°N, 12.2430°E)
Time: 17:59:53
(UTC+02:00)

ISS - Pass Details

Date: 20 May 2018
Orbit: 402 x 407 km, 51.6° (Epoch: 23 May)

Event Time Altitude Azimuth Distance (km) Brightness Sun altitude
Exits shadow 00:06:17 18° 53° (NE) 1,079 -1.5 -23.0°
Drops below altitude 10° 00:07:15 10° 57° (ENE) 1,459 -0.8 -23.0°
Sets 00:09:21 0° 62° (ENE) 2,320 0.2 -23.1°
